ORBCOMM FM21 1 25475U 98053A 21019.17708233 .00000052 00000-0 69794-4 0 9998 2 25475 45.0103 297.4313 0001411 332.6073 27.4699 14.33032281166410 ORBCOMM FM22 1 25476U 98053B 21019.14841493 .00000101 00000-0 87406-4 0 9997 2 25476 45.0099 297.1189 0001540 43.3488 316.7479 14.33137237166408 ORBCOMM FM23 1 25477U 98053C 21018.86260955 .00000046 00000-0 67849-4 0 9991 2 25477 45.0106 300.6275 0001127 12.6190 347.4684 14.32893684166193 ORBCOMM FM24 1 25478U 98053D 21019.15690953 .00000097 00000-0 86150-4 0 9992 2 25478 45.0104 299.8901 0001077 347.4506 12.6313 14.33027945166528 ORBCOMM FM25 1 25479U 98053E 21018.84750605 .00000029 00000-0 61283-4 0 9994 2 25479 45.0096 299.7106 0001825 118.9848 241.1182 14.33042065166495 ORBCOMM FM26 1 25480U 98053F 21019.14994099 -.00000010 00000-0 47513-4 0 9998 2 25480 45.0087 289.5976 0004110 159.5151 200.5860 14.32833309166611 ORBCOMM FM27 1 25481U 98053G 21019.15107779 .00000018 00000-0 57383-4 0 9994 2 25481 45.0078 298.3513 0002254 311.3555 48.7097 14.33008801166526 ORBCOMM FM28 1 25482U 98053H 21019.00599786 -.00000128 00000-0 45222-5 0 9995 2 25482 45.0068 242.8998 0002784 167.0065 193.0854 14.33692307167231 PEGASUS R/B(2) 1 25484U 98053K 21018.89736487 .00000003 00000-0 43055-4 0 9996 2 25484 44.5323 341.2724 0065703 308.3283 80.4050 14.41729330175371